Regional Weather Roundup
Issued by NWS Goodland, KS

Home | Current Version | Previous Version | Text Only | Print | Product List | Glossary On
Versions: 1 2 3 4 5 6 7 8 9 10 11 12 13 14 15 16 17 18 19 20 21 22 23 24 25 26 27 28 29 30 31 32 33 34 35 36 37 38 39 40 41 42 43 44 45 46 47 48 49 50
000
ASUS43 KGLD 231008
RWRGLD

GOODLAND FORECAST AREA HOURLY WEATHER ROUNDUP
NATIONAL WEATHER SERVICE GOODLAND KS
400 AM MDT SAT AUG 23 2014

...OFFICIAL OBSERVATIONS...

CITY           SKY/WX    TMP DP  RH WIND       PRES   REMARKS
GOODLAND KS    CLOUDY    65  64  97 W7        29.94F
HILL CITY KS   MOCLDY    70  67  90 E5        29.86F
IMPERIAL NEB   MOCLDY    65  63  93 SW6       29.93R
MCCOOK NEB     PTCLDY    67  64  90 SE5       29.89R
AKRON CO       CLOUDY    61  60  97 S3        29.98F
BURLINGTON CO  PTCLDY    63  62  97 CALM      29.96F
LIMON CO       CLOUDY    57  57 100 S5        30.02F FOG
$$

...UNOFFICIAL OBSERVATIONS...

CITY           SKY/WX    TMP DP  RH WIND       PRES   REMARKS
COLBY KS       CLEAR     64  64 100 W6        29.90F
NORTON KS      CLEAR     68  64  88 CALM      29.86F
SHARON SPRINGS   N/A     64  63  96 CALM        N/A
WAKEENEY KS      N/A     72  65  81 MISG        N/A
KIT CARSON CO    N/A     62  60  92 MISG        N/A
$$


USA.gov is the U.S. government's official web portal to all federal, state and local government web resources and services.